Change the Weather History Date:

Saturday, May 18, 2013

  Actual Average (KBGD) Record (KBGD)
Temperature  
Mean Temperature 84 °F 69 °F  
Max Temperature 100 °F 81 °F 100 °F (1996)
Min Temperature 68 °F 56 °F 39 °F (1995)
Degree Days  
Heating Degree Days 0 2  
Month to date heating degree days 51  
Since 1 July heating degree days 3754  
Cooling Degree Days 19 5  
Month to date cooling degree days 67  
Year to date cooling degree days 111  
Growing Degree Days 34 (Base 50)    
Moisture  
Dew Point 44 °F    
Average Humidity 33    
Maximum Humidity 88    
Minimum Humidity 8    
Precipitation  
Precipitation 0.00 in 0.10 in 2.24 in (1977)
Month to date precipitation 1.30  
Year to date precipitation 5.46  
Snow  
Snow 0.00 in - T in (1949)
Month to date snowfall  
Since 1 July snowfall  
Snow Depth -    
Sea Level Pressure  
Sea Level Pressure 29.72 in    
Wind  
Wind Speed 14 mph (South)    
Max Wind Speed 26 mph    
Max Gust Speed 43 mph    
Visibility 10 miles    
Events      
T = Trace of Precipitation, MM = Missing Value Source: NWS Daily Summary

Daily Weather History Graph

Daily Weather History Graph

Search for Another Location

Airport or City:

Trip Planner

Search our weather history database for the weather conditions in past years. The results will help you decide how hot, cold, wet, or windy it might be!

Date:

Astronomy

May. 18, 2013 Rise Set
Actual Time 6:36 AM CDT 8:45 PM CDT
Civil Twilight 6:07 AM CDT 9:14 PM CDT
Nautical Twilight 5:32 AM CDT 9:49 PM CDT
Astronomical Twilight 4:54 AM CDT 10:27 PM CDT
Moon 2:03 PM CDT (5/18) 2:15 AM CDT (5/18)
Length of Visible Light 15h 06m
Length of Day
14h 09m
First Quarter, 55% of the Moon is Illuminated
May 18
First Quarter
May 24
Full
May 31
Last Quarter
Jun 8
New
Jun 16
First Quarter

Hourly Weather History & Observations

Time (CDT) Temp. Dew Point Humidity Pressure Visibility Wind Dir Wind Speed Gust Speed Precip Events Conditions
12:15 AM 73.4 °F 68.0 °F 83% 29.84 in 10.0 mi SE 10.4 mph 16.1 mph N/A   Overcast
12:35 AM 73.4 °F 68.0 °F 83% 29.84 in 10.0 mi South 8.1 mph 17.3 mph N/A   Scattered Clouds
12:55 AM 73.4 °F 68.0 °F 83% 29.82 in 7.0 mi SSE 19.6 mph 23.0 mph N/A   Clear
1:15 AM 73.4 °F 68.0 °F 83% 29.81 in 10.0 mi SSE 18.4 mph 27.6 mph N/A   Clear
1:35 AM 71.6 °F 68.0 °F 88% 29.82 in 10.0 mi South 6.9 mph 19.6 mph N/A   Clear
1:55 AM 71.6 °F 68.0 °F 88% 29.82 in 7.0 mi Calm Calm - N/A   Clear
2:15 AM 71.6 °F 66.2 °F 83% 29.82 in 7.0 mi Calm Calm - N/A   Clear
2:35 AM 71.6 °F 66.2 °F 83% 29.80 in 10.0 mi SSE 12.7 mph - N/A   Clear
2:55 AM 71.6 °F 66.2 °F 83% 29.80 in 10.0 mi SSE 9.2 mph 16.1 mph N/A   Clear
3:15 AM 69.8 °F 64.4 °F 83% 29.80 in 7.0 mi South 4.6 mph - N/A   Clear
3:35 AM 69.8 °F 64.4 °F 83% 29.78 in 7.0 mi SSE 10.4 mph 17.3 mph N/A   Clear
3:55 AM 69.8 °F 64.4 °F 83% 29.80 in 10.0 mi South 8.1 mph 19.6 mph N/A   Clear
4:15 AM 69.8 °F 64.4 °F 83% 29.80 in 10.0 mi Calm Calm - N/A   Clear
4:35 AM 68.0 °F 64.4 °F 88% 29.80 in 10.0 mi NE 3.5 mph - N/A   Clear
4:55 AM 68.0 °F 62.6 °F 83% 29.79 in 10.0 mi Calm Calm - N/A   Clear
5:15 AM 68.0 °F 62.6 °F 83% 29.79 in 10.0 mi SE 5.8 mph - N/A   Clear
5:35 AM 68.0 °F 62.6 °F 83% 29.77 in 10.0 mi ESE 5.8 mph - N/A   Clear
5:55 AM 82.4 °F 35.6 °F 19% 29.75 in 10.0 mi South 17.3 mph 29.9 mph N/A   Clear
6:15 AM 86.0 °F 32.0 °F 14% 29.75 in 10.0 mi South 20.7 mph 25.3 mph N/A   Clear
6:35 AM 86.0 °F 32.0 °F 14% 29.75 in 10.0 mi South 15.0 mph - N/A   Clear
6:55 AM 82.4 °F 32.0 °F 16% 29.76 in 10.0 mi South 18.4 mph 27.6 mph N/A   Clear
7:15 AM 80.6 °F 35.6 °F 20% 29.77 in 10.0 mi South 18.4 mph 23.0 mph N/A   Clear
7:35 AM 78.8 °F 37.4 °F 23% 29.77 in 10.0 mi South 16.1 mph - N/A   Clear
7:55 AM 78.8 °F 41.0 °F 26% 29.77 in 10.0 mi South 18.4 mph - N/A   Clear
8:15 AM 80.6 °F 42.8 °F 26% 29.77 in 10.0 mi South 19.6 mph - N/A   Clear
8:35 AM 82.4 °F 46.4 °F 28% 29.78 in 10.0 mi South 21.9 mph 28.8 mph N/A   Clear
8:55 AM 82.4 °F 46.4 °F 28% 29.77 in 10.0 mi South 24.2 mph 32.2 mph N/A   Clear
9:15 AM 82.4 °F 46.4 °F 28% 29.78 in 10.0 mi South 23.0 mph 32.2 mph N/A   Clear
9:35 AM 84.2 °F 48.2 °F 29% 29.79 in 10.0 mi South 19.6 mph 27.6 mph N/A   Clear
9:55 AM 82.4 °F 50.0 °F 32% 29.79 in 10.0 mi South 18.4 mph 31.1 mph N/A   Clear
10:15 AM 86.0 °F 48.2 °F 27% 29.78 in 10.0 mi South 25.3 mph 33.4 mph N/A   Clear
10:35 AM 87.8 °F 46.4 °F 24% 29.78 in 10.0 mi South 21.9 mph 31.1 mph N/A   Clear
10:55 AM 89.6 °F 44.6 °F 21% 29.78 in 10.0 mi South 21.9 mph 29.9 mph N/A   Clear
11:15 AM 89.6 °F 44.6 °F 21% 29.77 in 10.0 mi South 20.7 mph 26.5 mph N/A   Clear
11:35 AM 93.2 °F 39.2 °F 15% 29.77 in 10.0 mi SSW 17.3 mph 26.5 mph N/A   Clear
11:55 AM 95.0 °F 37.4 °F 13% 29.76 in 10.0 mi South 16.1 mph 19.6 mph N/A   Clear
12:15 PM 96.8 °F 33.8 °F 11% 29.75 in 10.0 mi SW 16.1 mph 21.9 mph N/A   Clear
12:35 PM 98.6 °F 28.4 °F 8% 29.75 in 10.0 mi WSW 21.9 mph 29.9 mph N/A   Clear
12:55 PM 98.6 °F 28.4 °F 8% 29.74 in 10.0 mi WSW 20.7 mph 28.8 mph N/A   Clear
1:15 PM 98.6 °F 30.2 °F 9% 29.73 in 10.0 mi West 19.6 mph 31.1 mph N/A   Clear
1:35 PM 98.6 °F 32.0 °F 10% 29.72 in 10.0 mi WSW 20.7 mph 25.3 mph N/A   Clear
1:55 PM 100.4 °F 28.4 °F 8% 29.71 in 10.0 mi SW 17.3 mph 25.3 mph N/A   Clear
2:15 PM 98.6 °F 28.4 °F 8% 29.70 in 10.0 mi SW 12.7 mph 26.5 mph N/A   Clear
2:35 PM 96.8 °F 28.4 °F 9% 29.70 in 10.0 mi SW 12.7 mph 18.4 mph N/A   Clear
2:55 PM 96.8 °F 26.6 °F 8% 29.69 in 10.0 mi SSW 15.0 mph 18.4 mph N/A   Clear
3:15 PM 96.8 °F 30.2 °F 10% 29.68 in 10.0 mi South 18.4 mph 23.0 mph N/A   Clear
3:35 PM 96.8 °F 28.4 °F 9% 29.68 in 10.0 mi South 20.7 mph 25.3 mph N/A   Clear
3:55 PM 95.0 °F 32.0 °F 11% 29.68 in 10.0 mi South 17.3 mph 24.2 mph N/A   Clear
4:15 PM 96.8 °F 35.6 °F 12% 29.67 in 10.0 mi SSE 20.7 mph 27.6 mph N/A   Clear
4:35 PM 96.8 °F 33.8 °F 11% 29.66 in 10.0 mi SSW 20.7 mph 32.2 mph N/A   Clear
4:55 PM 95.0 °F 33.8 °F 12% 29.66 in 10.0 mi South 11.5 mph 34.5 mph N/A   Clear
5:15 PM 93.2 °F 35.6 °F 13% 29.64 in 10.0 mi South 21.9 mph 29.9 mph N/A   Clear
5:35 PM 95.0 °F 28.4 °F 9% 29.64 in 10.0 mi South 12.7 mph 42.6 mph N/A   Clear
5:55 PM 95.0 °F 33.8 °F 12% 29.63 in 10.0 mi South 21.9 mph 26.5 mph N/A   Clear
6:15 PM 91.4 °F 33.8 °F 13% 29.62 in 10.0 mi South 21.9 mph 34.5 mph N/A   Clear
6:35 PM 95.0 °F 35.6 °F 12% 29.61 in 10.0 mi South 19.6 mph 31.1 mph N/A   Clear
6:55 PM 95.0 °F 35.6 °F 12% 29.61 in 10.0 mi South 25.3 mph 32.2 mph N/A   Clear
7:15 PM 95.0 °F 33.8 °F 12% 29.61 in 10.0 mi South 26.5 mph 31.1 mph N/A   Clear
7:35 PM 95.0 °F 33.8 °F 12% 29.60 in 10.0 mi SSW 17.3 mph 26.5 mph N/A   Clear
7:55 PM 93.2 °F 32.0 °F 11% 29.59 in 10.0 mi SSW 18.4 mph 24.2 mph N/A   Clear
8:15 PM 91.4 °F 28.4 °F 10% 29.59 in 10.0 mi SSW 13.8 mph 19.6 mph N/A   Clear
8:35 PM 89.6 °F 35.6 °F 15% 29.60 in 10.0 mi South 15.0 mph 18.4 mph N/A   Clear
8:55 PM 86.0 °F 41.0 °F 20% 29.60 in 10.0 mi SSW 8.1 mph - N/A   Clear
9:15 PM 86.0 °F 35.6 °F 17% 29.60 in 10.0 mi SSW 11.5 mph 23.0 mph N/A   Clear
9:35 PM 84.2 °F 32.0 °F 15% 29.61 in 10.0 mi South 11.5 mph 17.3 mph N/A   Clear
9:55 PM 82.4 °F 30.2 °F 15% 29.63 in 10.0 mi South 10.4 mph - N/A   Clear
10:15 PM 82.4 °F 41.0 °F 23% 29.65 in 10.0 mi South 12.7 mph - N/A   Clear
10:35 PM 80.6 °F 42.8 °F 26% 29.66 in 10.0 mi South 15.0 mph 20.7 mph N/A   Clear
10:55 PM 82.4 °F 42.8 °F 25% 29.67 in 10.0 mi South 16.1 mph 21.9 mph N/A   Clear
11:15 PM 80.6 °F 46.4 °F 30% 29.68 in 10.0 mi South 16.1 mph 23.0 mph N/A   Clear
11:35 PM 80.6 °F 50.0 °F 34% 29.69 in 10.0 mi South 23.0 mph 28.8 mph N/A   Clear
11:55 PM 78.8 °F 50.0 °F 36% 29.70 in 10.0 mi SSE 10.4 mph - N/A   Clear